When you browse on this site, cookies collect data to enhance your experience and personalize the content and advertising you see.
Visit our Privacy Policy to learn more. By continuing to use the site, you agree to this use of cookies and data.
  • In Lithuania
  • List of Countries
  • For 7 days
  • Water Temperature
  • Weather Map
  • Weather Widgets
  • user-avatar
    Login

    Hourly Weather Wagadugu

    Today, 19 September, Thursday

    Time Temperature Precipitation Wind Pressure Humidity
    00:00 +27°C° 0.3 mm 2 mps 733 mmHg 71%
    01:00 +27°C° 0 mm 2 mps 732 mmHg 72%
    02:00 +26°C° 0 mm 2 mps 732 mmHg 73%
    03:00 +26°C° 0 mm 2 mps 731 mmHg 74%
    04:00 +26°C° 0 mm 2 mps 732 mmHg 74%
    05:00 +26°C° 0 mm 2 mps 732 mmHg 75%
    06:00 +25°C° 0 mm 3 mps 733 mmHg 76%
    07:00 +27°C° 0 mm 3 mps 733 mmHg 71%
    08:00 +28°C° 0 mm 3 mps 733 mmHg 66%
    09:00 +30°C° 0 mm 3 mps 734 mmHg 62%
    10:00 +31°C° 0 mm 3 mps 733 mmHg 57%
    11:00 +34°C° 0 mm 3 mps 733 mmHg 53%
    12:00 +35°C° 0 mm 2 mps 733 mmHg 49%
    13:00 +36°C° 0 mm 2 mps 732 mmHg 47%
    14:00 +35°C° 0 mm 1 mps 732 mmHg 44%
    15:00 +34°C° 0 mm 0 mps 731 mmHg 42%
    16:00 +35°C° 0 mm 1 mps 731 mmHg 47%
    17:00 +33°C° 0 mm 1 mps 731 mmHg 51%
    18:00 +32°C° 0 mm 2 mps 731 mmHg 55%
    19:00 +32°C° 0 mm 2 mps 731 mmHg 56%
    20:00 +31°C° 0 mm 2 mps 732 mmHg 56%
    21:00 +31°C° 0 mm 2 mps 732 mmHg 57%
    22:00 +30°C° 0 mm 2 mps 732 mmHg 60%
    23:00 +30°C° 0 mm 2 mps 732 mmHg 63%

    Tomorrow, 20 September, Friday

    Time Temperature Precipitation Wind Pressure Humidity
    00:00 +29°C° 0 mm 2 mps 732 mmHg 66%
    01:00 +29°C° 0 mm 2 mps 732 mmHg 68%
    02:00 +28°C° 0 mm 2 mps 732 mmHg 70%
    03:00 +28°C° 0 mm 1 mps 731 mmHg 72%
    04:00 +28°C° 0 mm 2 mps 732 mmHg 72%
    05:00 +28°C° 0 mm 2 mps 732 mmHg 73%
    06:00 +28°C° 0 mm 2 mps 732 mmHg 74%
    07:00 +28°C° 0 mm 3 mps 733 mmHg 74%
    08:00 +29°C° 0 mm 3 mps 733 mmHg 74%
    09:00 +29°C° 0 mm 3 mps 733 mmHg 74%
    10:00 +29°C° 0 mm 3 mps 733 mmHg 73%
    11:00 +30°C° 0 mm 3 mps 733 mmHg 73%
    12:00 +30°C° 0 mm 3 mps 732 mmHg 73%
    13:00 +31°C° 0 mm 2 mps 732 mmHg 66%
    14:00 +34°C° 0 mm 2 mps 731 mmHg 59%
    15:00 +35°C° 0 mm 2 mps 731 mmHg 51%
    16:00 +34°C° 0 mm 2 mps 731 mmHg 55%
    17:00 +32°C° 0 mm 2 mps 731 mmHg 59%
    18:00 +31°C° 0 mm 2 mps 731 mmHg 63%
    19:00 +31°C° 0 mm 2 mps 732 mmHg 65%
    20:00 +30°C° 0 mm 2 mps 732 mmHg 67%
    21:00 +29°C° 0 mm 2 mps 733 mmHg 69%
    22:00 +29°C° 0 mm 2 mps 733 mmHg 71%
    23:00 +28°C° 0 mm 3 mps 733 mmHg 74%

    Day after tomorrow, 21 September, Saturday

    Time Temperature Precipitation Wind Pressure Humidity
    00:00 +28°C° 0 mm 3 mps 733 mmHg 76%
    01:00 +28°C° 0.3 mm 2 mps 733 mmHg 79%
    02:00 +27°C° 0.3 mm 2 mps 732 mmHg 82%
    03:00 +27°C° 0.3 mm 1 mps 732 mmHg 85%
    04:00 +27°C° 0 mm 2 mps 732 mmHg 86%
    05:00 +27°C° 0 mm 2 mps 733 mmHg 86%
    06:00 +26°C° 0 mm 3 mps 733 mmHg 86%
    07:00 +28°C° 0 mm 3 mps 733 mmHg 80%
    08:00 +30°C° 0 mm 4 mps 733 mmHg 73%
    09:00 +32°C° 0 mm 4 mps 734 mmHg 67%
    10:00 +34°C° 0 mm 4 mps 733 mmHg 60%
    11:00 +35°C° 0 mm 3 mps 733 mmHg 54%
    12:00 +36°C° 0 mm 3 mps 733 mmHg 48%
    13:00 +37°C° 0 mm 2 mps 732 mmHg 45%
    14:00 +36°C° 0 mm 1 mps 732 mmHg 43%
    15:00 +37°C° 0 mm 1 mps 731 mmHg 40%
    16:00 +36°C° 0 mm 1 mps 731 mmHg 44%
    17:00 +36°C° 0 mm 2 mps 731 mmHg 48%
    18:00 +35°C° 0 mm 3 mps 731 mmHg 52%
    19:00 +33°C° 0.1 mm 3 mps 731 mmHg 57%
    20:00 +32°C° 0.1 mm 4 mps 732 mmHg 62%
    21:00 +30°C° 0.1 mm 5 mps 732 mmHg 67%
    22:00 +29°C° 0.3 mm 4 mps 732 mmHg 71%
    23:00 +29°C° 0.3 mm 3 mps 733 mmHg 75%

    22 September, Sunday

    Time Temperature Precipitation Wind Pressure Humidity
    00:00 +28°C° 0.3 mm 2 mps 733 mmHg 79%
    01:00 +28°C° 0.1 mm 2 mps 732 mmHg 80%
    02:00 +27°C° 0.1 mm 2 mps 732 mmHg 82%
    03:00 +27°C° 0.1 mm 2 mps 731 mmHg 83%
    04:00 +27°C° 0 mm 2 mps 732 mmHg 84%
    05:00 +27°C° 0 mm 3 mps 732 mmHg 84%
    06:00 +27°C° 0 mm 3 mps 732 mmHg 84%
    07:00 +28°C° 0 mm 3 mps 733 mmHg 79%
    08:00 +30°C° 0 mm 4 mps 733 mmHg 73%
    09:00 +32°C° 0 mm 4 mps 734 mmHg 68%
    10:00 +33°C° 0 mm 4 mps 733 mmHg 64%
    11:00 +34°C° 0 mm 4 mps 733 mmHg 59%
    12:00 +36°C° 0 mm 4 mps 732 mmHg 54%
    13:00 +36°C° 0 mm 3 mps 732 mmHg 52%
    14:00 +36°C° 0 mm 3 mps 731 mmHg 50%
    15:00 +37°C° 0 mm 2 mps 731 mmHg 47%
    16:00 +36°C° 0.1 mm 3 mps 731 mmHg 52%
    17:00 +35°C° 0.1 mm 3 mps 731 mmHg 57%
    18:00 +33°C° 0.1 mm 3 mps 731 mmHg 62%
    19:00 +33°C° 0.2 mm 3 mps 731 mmHg 65%
    20:00 +31°C° 0.2 mm 3 mps 732 mmHg 69%
    21:00 +30°C° 0.2 mm 4 mps 732 mmHg 73%
    22:00 +29°C° 0.1 mm 4 mps 732 mmHg 75%
    23:00 +29°C° 0.1 mm 3 mps 732 mmHg 77%

    23 September, Monday

    Time Temperature Precipitation Wind Pressure Humidity
    00:00 +28°C° 0.1 mm 3 mps 732 mmHg 79%
    01:00 +28°C° 0 mm 3 mps 732 mmHg 79%
    02:00 +28°C° 0 mm 3 mps 732 mmHg 79%
    03:00 +28°C° 0 mm 3 mps 732 mmHg 79%
    04:00 +28°C° 0 mm 3 mps 732 mmHg 79%
    05:00 +27°C° 0 mm 3 mps 732 mmHg 79%
    06:00 +27°C° 0 mm 3 mps 732 mmHg 79%
    07:00 +29°C° 0.1 mm 4 mps 733 mmHg 74%
    08:00 +30°C° 0.1 mm 4 mps 733 mmHg 70%
    09:00 +32°C° 0.1 mm 5 mps 734 mmHg 65%
    10:00 +33°C° 0 mm 4 mps 733 mmHg 60%
    11:00 +35°C° 0 mm 4 mps 733 mmHg 55%
    12:00 +36°C° 0 mm 4 mps 732 mmHg 50%
    13:00 +37°C° 0 mm 3 mps 731 mmHg 47%
    14:00 +38°C° 0 mm 2 mps 731 mmHg 43%
    15:00 +37°C° 0 mm 1 mps 730 mmHg 40%
    16:00 +36°C° 0 mm 1 mps 730 mmHg 43%
    17:00 +35°C° 0 mm 1 mps 730 mmHg 47%
    18:00 +34°C° 0 mm 1 mps 730 mmHg 51%
    19:00 +34°C° 0.3 mm 2 mps 731 mmHg 55%
    20:00 +32°C° 0.3 mm 2 mps 731 mmHg 59%
    21:00 +30°C° 0.3 mm 3 mps 732 mmHg 63%
    22:00 +30°C° 0.8 mm 2 mps 732 mmHg 67%
    23:00 +29°C° 0.8 mm 1 mps 732 mmHg 70%

    24 September, Tuesday

    Time Temperature Precipitation Wind Pressure Humidity
    00:00 +26°C° 0.8 mm 0 mps 732 mmHg 73%
    01:00 +28°C° 0 mm 1 mps 732 mmHg 74%
    02:00 +28°C° 0 mm 2 mps 731 mmHg 75%
    03:00 +28°C° 0 mm 3 mps 731 mmHg 76%
    04:00 +28°C° 0 mm 3 mps 731 mmHg 78%
    05:00 +27°C° 0 mm 4 mps 732 mmHg 80%
    06:00 +27°C° 0 mm 4 mps 732 mmHg 81%
    07:00 +28°C° 0 mm 5 mps 733 mmHg 77%
    08:00 +29°C° 0 mm 6 mps 733 mmHg 73%
    09:00 +30°C° 0 mm 7 mps 734 mmHg 69%
    10:00 +32°C° 0 mm 6 mps 734 mmHg 61%
    11:00 +34°C° 0 mm 5 mps 733 mmHg 52%
    12:00 +36°C° 0 mm 4 mps 733 mmHg 44%
    13:00 +36°C° 0 mm 4 mps 732 mmHg 42%
    14:00 +37°C° 0 mm 4 mps 732 mmHg 40%
    15:00 +37°C° 0 mm 4 mps 731 mmHg 38%
    16:00 +36°C° 0 mm 4 mps 731 mmHg 44%
    17:00 +34°C° 0 mm 4 mps 731 mmHg 49%
    18:00 +33°C° 0 mm 4 mps 731 mmHg 55%
    19:00 +31°C° 0 mm 3 mps 732 mmHg 57%
    20:00 +31°C° 0 mm 3 mps 732 mmHg 59%
    21:00 +30°C° 0 mm 2 mps 732 mmHg 61%
    22:00 +29°C° 0 mm 2 mps 732 mmHg 62%
    23:00 +29°C° 0 mm 2 mps 732 mmHg 64%
    Show more